Weather History for Palmer, AK

Change the Weather History Date:

Monday, August 5, 2013

  Actual Average Record
Temperature  
Mean Temperature 58 °F -  
Max Temperature 66 °F 67 °F 77 °F (2004)
Min Temperature 52 °F 49 °F 40 °F (1962)
Degree Days  
Heating Degree Days 7    
Growing Degree Days 8 (Base 50)    
Moisture  
Dew Point 48 °F    
Average Humidity 68    
Maximum Humidity 89    
Minimum Humidity 54    
Precipitation  
Precipitation 0.01 in - - ()
Sea Level Pressure  
Sea Level Pressure 29.97 in    
Wind  
Wind Speed 8 mph (ESE)    
Max Wind Speed 20 mph    
Max Gust Speed 26 mph    
Visibility 10 miles    
Events      
Averages and records for this station are not official NWS values.
T = Trace of Precipitation, MM = Missing Value Source: NWS Daily Summary

Daily Weather History Graph

Daily Weather History Graph

Search for Another Location

Airport:

Trip Planner

Search our weather history database for the weather conditions in past years. The results will help you decide how hot, cold, wet, or windy it might be!

Date:

Astronomy

Aug. 05, 2013 Rise Set
Actual Time 5:37 AM AKDT 10:25 PM AKDT
Civil Twilight 4:33 AM AKDT 11:27 PM AKDT
Nautical Twilight 2:34 AM AKDT 1:29 AM AKDT
Astronomical Twilight Sun does not rise Sun does not rise
Moon 4:49 AM AKDT (8/5) 9:13 PM AKDT (8/5)
Length of Visible Light 18h 53m
Length of Day
16h 47m
Waning Crescent, 1% of the Moon is Illuminated
Aug 5
Waning Crescent
Aug 6
New
Aug 14
First Quarter
Aug 20
Full
Aug 28
Last Quarter

Hourly Weather History & Observations

Time (AKDT) Temp. Dew Point Humidity Pressure Visibility Wind Dir Wind Speed Gust Speed Precip Events Conditions
12:53 AM 55.9 °F 46.0 °F 69% 29.98 in 10.0 mi East 4.6 mph - N/A   Overcast
1:53 AM 55.9 °F 48.0 °F 75% 29.98 in 10.0 mi Variable 4.6 mph - N/A   Overcast
2:53 AM 53.1 °F 48.9 °F 86% 29.98 in 10.0 mi ENE 3.5 mph - 0.00 in   Mostly Cloudy
3:53 AM 53.1 °F 48.9 °F 86% 29.98 in 10.0 mi North 4.6 mph - N/A   Overcast
4:53 AM 53.1 °F 48.9 °F 86% 29.98 in 10.0 mi NE 4.6 mph - N/A   Overcast
5:53 AM 53.1 °F 48.9 °F 86% 29.99 in 10.0 mi North 4.6 mph - 0.00 in   Overcast
6:53 AM 52.0 °F 48.9 °F 89% 29.98 in 10.0 mi North 3.5 mph - N/A   Mostly Cloudy
7:53 AM 53.1 °F 48.9 °F 86% 29.98 in 10.0 mi North 6.9 mph - N/A   Overcast
8:53 AM 57.0 °F 50.0 °F 77% 29.98 in 10.0 mi North 5.8 mph - N/A   Mostly Cloudy
9:53 AM 59.0 °F 50.0 °F 72% 29.98 in 10.0 mi North 3.5 mph - N/A   Mostly Cloudy
10:53 AM 60.1 °F 46.9 °F 62% 29.98 in 10.0 mi SE 5.8 mph - N/A   Overcast
11:53 AM 62.1 °F 48.9 °F 62% 29.98 in 10.0 mi SE 8.1 mph - N/A   Overcast
12:53 PM 63.0 °F 48.9 °F 60% 29.97 in 10.0 mi SE 6.9 mph - N/A   Overcast
1:53 PM 63.0 °F 48.0 °F 58% 29.97 in 10.0 mi SSE 18.4 mph 26.5 mph N/A   Overcast
2:53 PM 64.0 °F 48.0 °F 56% 29.96 in 10.0 mi SE 18.4 mph 24.2 mph 0.01 in   Overcast
3:53 PM 64.9 °F 48.0 °F 54% 29.96 in 10.0 mi SSE 17.3 mph 25.3 mph N/A   Overcast
4:53 PM 64.0 °F 46.9 °F 54% 29.96 in 10.0 mi SSE 17.3 mph - N/A   Overcast
5:53 PM 64.0 °F 46.9 °F 54% 29.96 in 10.0 mi SSE 19.6 mph 26.5 mph N/A   Mostly Cloudy
6:53 PM 63.0 °F 46.0 °F 54% 29.96 in 10.0 mi SSE 18.4 mph 25.3 mph N/A   Partly Cloudy
7:53 PM 62.1 °F 46.0 °F 56% 29.96 in 10.0 mi SE 13.8 mph - N/A   Partly Cloudy
8:53 PM 61.0 °F 46.0 °F 58% 29.97 in 10.0 mi SSE 16.1 mph 21.9 mph N/A   Overcast
9:53 PM 59.0 °F 46.9 °F 64% 29.97 in 10.0 mi SE 10.4 mph - N/A   Partly Cloudy
10:53 PM 57.9 °F 46.0 °F 65% 29.97 in 10.0 mi SE 11.5 mph - N/A   Scattered Clouds
11:53 PM 57.0 °F 46.0 °F 67% 29.98 in 10.0 mi East 6.9 mph - N/A   Clear